Regional Weather Roundup
Issued by NWS Cleveland, OH

Home | Current Version | Previous Version | Graphics & Text | Print | Product List | Glossary On
Versions: 1 2 3 4 5 6 7 8 9 10 11 12 13 14 15 16 17 18 19 20 21 22 23 24 25 26 27 28 29 30 31 32 33 34 35 36 37 38 39 40 41 42 43 44 45 46 47 48 49 50
000
ASUS41 KCLE 181310
RWRCLE
OHIO REGIONAL WEATHER ROUNDUP
NATIONAL WEATHER SERVICE CLEVELAND, OH
900 AM EDT THU SEP 18 2014

NOTE: "FAIR" INDICATES FEW OR NO CLOUDS BELOW 12,000 FEET WITH NO
SIGNIFICANT WEATHER AND/OR OBSTRUCTIONS TO VISIBILITY.

OHZ001>008-015>018-024>027-034-035-043-044-181400-
   NORTHWEST OHIO

CITY           SKY/WX    TMP DP  RH WIND       PRES   REMARKS
DEFIANCE       SUNNY     52  47  83 NE6       30.11R
FINDLAY        SUNNY     53  50  89 CALM      30.08R
TOLEDO EXPRESS SUNNY     51  47  86 N5        30.11R
TOLEDO EXEC    SUNNY     55  48  77 N5        30.11R
LIMA           SUNNY     54  49  83 NE3       30.08R HAZE
$$

OHZ009>014-019>023-028>033-038-089-181400-
   NORTHEAST OHIO

CITY           SKY/WX    TMP DP  RH WIND       PRES   REMARKS
CLE-HOPKINS    MOSUNNY   55  49  80 SW3       30.10R
CLE-LAKEFRONT  MOSUNNY   58  49  72 S3        30.07R
CUY CO. ARPT   MOSUNNY   57  54  88 CALM      30.08R
LORAIN-ELYRIA  SUNNY     58  52  80 CALM      30.09R
ASHTABULA      SUNNY     52  49  89 CALM      30.08R
AKRON-CANTON   MOSUNNY   59  51  75 CALM      30.07S
WOOSTER        MOSUNNY   53  50  89 CALM      30.09R FOG
MANSFIELD      SUNNY     56  50  80 CALM      30.09R
YOUNGSTOWN     MOSUNNY   51  50  96 CALM      30.07S FOG
$$

OHZ042-051>053-060>062-070>072-077>081-181400-
  SOUTHWEST OHIO

CITY           SKY/WX    TMP DP  RH WIND       PRES   REMARKS
CINC-COVINGTON SUNNY     57  50  77 NE5       30.07R
CINC-LUNKEN    MOSUNNY   53  51  93 NE3       30.09R
HAMILTON       SUNNY     54  51  90 CALM      30.09R
DAYTON         SUNNY     55  50  83 N5        30.09R
WRIGHT-PAT AFB SUNNY     51  47  89 CALM      30.08R
DAYTON GENERAL SUNNY     55  50  83 NE5       30.07R
WILMINGTON     SUNNY     54  47  77 NE5       30.07R
$$

OHZ036-037-039>041-045>050-054>059-063>069-073>076-082>088-181400-
  CENTRAL AND SOUTHEAST OHIO

CITY           SKY/WX    TMP DP  RH WIND       PRES   REMARKS
COLUMBUS       SUNNY     56  49  77 N3        30.06S
OSU AIRPORT    SUNNY     55  50  83 N6        30.07S HAZE
BOLTON FIELD   SUNNY     54  52  94 N5        30.07R
RICKENBACK AFB SUNNY     55  50  84 CALM      30.06S
NEWARK         SUNNY     54  50  86 CALM      30.07R
MARION         SUNNY     54  50  86 CALM      30.09R FOG
LANCASTER      SUNNY     55  51  86 CALM      30.07R FOG
ZANESVILLE     SUNNY     55  49  80 CALM      30.06S
NEW PHILLY     SUNNY     54  51  90 CALM      30.08R FOG
$$



USA.gov is the U.S. government's official web portal to all federal, state and local government web resources and services.